Time,TemperatureF,DewpointF,PressureIn,WindDirection,WindDirectionDegrees,WindSpeedMPH,WindSpeedGustMPH,Humidity,HourlyPrecipIn,Conditions,Clouds,dailyrainin,SoftwareType,DateUTC
2018-02-24 00:01:00,59.0,54.0,30.48,NNW,338,5.0,-999.0,86,0.00,,,0.00,,2018-02-24 05:01:00,
2018-02-24 00:06:00,58.8,54.0,30.47,NNW,338,6.0,-999.0,86,0.00,,,0.00,,2018-02-24 05:06:00,
2018-02-24 00:12:00,58.8,54.0,30.47,NNW,338,5.0,-999.0,86,0.00,,,0.00,,2018-02-24 05:12:00,
2018-02-24 00:17:00,58.5,54.0,30.47,NNW,338,4.0,-999.0,86,0.00,,,0.00,,2018-02-24 05:17:00,
2018-02-24 00:23:00,58.5,54.0,30.47,NNW,338,2.0,-999.0,86,0.00,,,0.00,,2018-02-24 05:23:00,
2018-02-24 00:29:00,58.5,54.0,30.46,NNW,338,4.0,-999.0,86,0.00,,,0.00,,2018-02-24 05:29:00,
2018-02-24 00:34:00,58.4,54.0,30.46,NNW,338,3.0,-999.0,86,0.00,,,0.00,,2018-02-24 05:34:00,
2018-02-24 00:40:00,58.2,54.0,30.46,NNW,338,4.0,-999.0,86,0.00,,,0.00,,2018-02-24 05:40:00,
2018-02-24 00:45:00,58.0,54.0,30.46,NNW,338,3.0,-999.0,86,0.00,,,0.00,,2018-02-24 05:45:00,
2018-02-24 00:51:00,57.8,54.0,30.47,NNW,338,4.0,-999.0,86,0.00,,,0.00,,2018-02-24 05:51:00,
2018-02-24 00:56:00,57.8,54.0,30.46,NNW,338,5.0,-999.0,86,0.00,,,0.00,,2018-02-24 05:56:00,
2018-02-24 01:02:00,57.7,53.0,30.46,NNW,338,3.0,-999.0,86,0.00,,,0.00,,2018-02-24 06:02:00,
2018-02-24 01:07:00,57.7,54.0,30.46,NNW,338,2.0,-999.0,88,0.00,,,0.00,,2018-02-24 06:07:00,
2018-02-24 01:13:00,57.8,54.0,30.47,NNW,338,4.0,-999.0,88,0.00,,,0.00,,2018-02-24 06:13:00,
2018-02-24 01:18:00,57.5,54.0,30.46,NNW,338,2.0,-999.0,88,0.00,,,0.00,,2018-02-24 06:18:00,
2018-02-24 01:24:00,57.3,53.0,30.47,NNW,338,3.0,-999.0,88,0.00,,,0.00,,2018-02-24 06:24:00,
2018-02-24 01:29:00,57.2,53.0,30.46,NNW,338,1.0,-999.0,88,0.00,,,0.00,,2018-02-24 06:29:00,
2018-02-24 01:35:00,57.2,53.0,30.46,NNW,338,3.0,-999.0,88,0.00,,,0.00,,2018-02-24 06:35:00,
2018-02-24 01:40:00,57.3,53.0,30.46,NNW,338,4.0,-999.0,88,0.00,,,0.00,,2018-02-24 06:40:00,
2018-02-24 01:46:00,57.5,54.0,30.46,NNW,338,7.0,-999.0,88,0.00,,,0.00,,2018-02-24 06:46:00,
2018-02-24 01:51:00,57.7,54.0,30.47,NNW,338,5.0,-999.0,88,0.00,,,0.00,,2018-02-24 06:51:00,
2018-02-24 01:57:00,57.7,54.0,30.46,NNW,338,3.0,-999.0,88,0.00,,,0.00,,2018-02-24 06:57:00,
2018-02-24 02:02:00,57.5,54.0,30.46,NNW,338,5.0,-999.0,88,0.00,,,0.00,,2018-02-24 07:02:00,
2018-02-24 02:08:00,57.3,53.0,30.46,NNW,338,4.0,-999.0,88,0.00,,,0.00,,2018-02-24 07:08:00,
2018-02-24 02:13:00,57.5,54.0,30.46,NNW,338,3.0,-999.0,88,0.00,,,0.00,,2018-02-24 07:13:00,
2018-02-24 02:19:00,57.5,54.0,30.46,NNW,338,3.0,-999.0,88,0.00,,,0.00,,2018-02-24 07:19:00,
2018-02-24 02:24:00,57.8,54.0,30.46,NNW,338,3.0,-999.0,88,0.00,,,0.00,,2018-02-24 07:24:00,
2018-02-24 02:29:00,57.5,54.0,30.46,NNW,338,2.0,-999.0,88,0.00,,,0.00,,2018-02-24 07:29:00,
2018-02-24 02:35:00,57.3,53.0,30.46,NNW,338,3.0,-999.0,88,0.00,,,0.00,,2018-02-24 07:35:00,
2018-02-24 02:40:00,57.3,53.0,30.46,NNW,338,3.0,-999.0,88,0.00,,,0.00,,2018-02-24 07:40:00,
2018-02-24 02:46:00,57.2,53.0,30.46,NNW,338,4.0,-999.0,88,0.00,,,0.00,,2018-02-24 07:46:00,
2018-02-24 02:51:00,56.3,52.0,30.46,NNW,338,3.0,-999.0,86,0.00,,,0.00,,2018-02-24 07:51:00,
2018-02-24 02:57:00,55.7,51.0,30.46,NNW,338,3.0,-999.0,86,0.00,,,0.00,,2018-02-24 07:57:00,
2018-02-24 03:05:00,55.1,51.0,30.46,NNW,338,1.0,-999.0,86,0.00,,,0.00,,2018-02-24 08:05:00,
2018-02-24 03:10:00,54.7,50.0,30.45,NNW,338,1.0,-999.0,86,0.00,,,0.00,,2018-02-24 08:10:00,
2018-02-24 03:16:00,54.0,50.0,30.45,NNW,338,3.0,-999.0,86,0.00,,,0.00,,2018-02-24 08:16:00,
2018-02-24 03:24:00,53.8,50.0,30.46,NNW,338,6.0,-999.0,86,0.00,,,0.00,,2018-02-24 08:24:00,
2018-02-24 03:29:00,53.2,49.0,30.45,NNW,338,4.0,-999.0,86,0.00,,,0.00,,2018-02-24 08:29:00,
2018-02-24 03:35:00,53.1,49.0,30.46,NNW,338,2.0,-999.0,88,0.00,,,0.00,,2018-02-24 08:35:00,
2018-02-24 03:40:00,53.1,49.0,30.45,NNW,338,2.0,-999.0,88,0.00,,,0.00,,2018-02-24 08:40:00,
2018-02-24 03:45:00,53.1,49.0,30.45,NNW,338,2.0,-999.0,88,0.00,,,0.00,,2018-02-24 08:45:00,
2018-02-24 03:51:00,52.8,49.0,30.45,NNW,338,2.0,-999.0,88,0.00,,,0.00,,2018-02-24 08:51:00,
2018-02-24 03:57:00,52.6,49.0,30.45,NNW,338,2.0,-999.0,88,0.00,,,0.00,,2018-02-24 08:57:00,
2018-02-24 04:03:00,52.3,48.0,30.45,NNW,338,3.0,-999.0,88,0.00,,,0.00,,2018-02-24 09:03:00,
2018-02-24 04:18:00,52.3,48.0,30.46,NNW,338,5.0,-999.0,88,0.00,,,0.00,,2018-02-24 09:18:00,
2018-02-24 04:24:00,51.8,48.0,30.45,NNW,338,2.0,-999.0,88,0.00,,,0.00,,2018-02-24 09:24:00,
2018-02-24 04:29:00,51.5,48.0,30.46,NNW,338,4.0,-999.0,88,0.00,,,0.00,,2018-02-24 09:29:00,
2018-02-24 04:46:00,51.4,47.0,30.45,NNW,338,1.0,-999.0,88,0.00,,,0.00,,2018-02-24 09:46:00,
2018-02-24 05:03:00,51.0,47.0,30.45,NNW,338,3.0,-999.0,88,0.00,,,0.00,,2018-02-24 10:03:00,
2018-02-24 05:29:00,51.0,47.0,30.46,NNW,338,2.0,-999.0,88,0.00,,,0.00,,2018-02-24 10:29:00,
2018-02-24 05:48:00,50.1,46.0,30.45,NNW,338,1.0,-999.0,88,0.00,,,0.00,,2018-02-24 10:48:00,
2018-02-24 05:59:00,50.0,46.0,30.44,NNW,338,4.0,-999.0,88,0.00,,,0.00,,2018-02-24 10:59:00,
2018-02-24 06:07:00,49.8,46.0,30.44,NNW,338,3.0,-999.0,88,0.00,,,0.00,,2018-02-24 11:07:00,
2018-02-24 06:12:00,49.8,46.0,30.45,NNW,338,3.0,-999.0,88,0.00,,,0.00,,2018-02-24 11:12:00,
2018-02-24 06:18:00,49.6,46.0,30.45,NNW,338,3.0,-999.0,88,0.00,,,0.00,,2018-02-24 11:18:00,
2018-02-24 06:32:00,49.6,46.0,30.47,NNW,338,3.0,-999.0,88,0.00,,,0.00,,2018-02-24 11:32:00,
2018-02-24 06:56:00,49.4,45.0,30.50,NNW,338,1.0,-999.0,86,0.00,,,0.00,,2018-02-24 11:56:00,
2018-02-24 07:01:00,48.4,45.0,30.48,NNW,338,3.0,-999.0,88,0.00,,,0.01,,2018-02-24 12:01:00,
2018-02-24 07:39:00,48.2,45.0,30.45,NNW,338,2.0,-999.0,88,0.02,,,0.03,,2018-02-24 12:39:00,
2018-02-24 07:45:00,47.5,44.0,30.45,NNW,338,2.0,-999.0,90,0.02,,,0.03,,2018-02-24 12:45:00,
2018-02-24 07:57:00,47.5,44.0,30.48,NNW,338,3.0,-999.0,90,0.02,,,0.03,,2018-02-24 12:57:00,
2018-02-24 08:03:00,47.3,44.0,30.48,NNW,338,1.0,-999.0,90,0.00,,,0.03,,2018-02-24 13:03:00,
2018-02-24 08:08:00,47.3,44.0,30.48,NNW,338,2.0,-999.0,90,0.00,,,0.03,,2018-02-24 13:08:00,
2018-02-24 08:14:00,47.3,44.0,30.48,NNW,338,2.0,-999.0,90,0.00,,,0.03,,2018-02-24 13:14:00,
2018-02-24 08:25:00,47.3,44.0,30.46,NNW,338,2.0,-999.0,90,0.00,,,0.03,,2018-02-24 13:25:00,
2018-02-24 08:30:00,47.1,44.0,30.46,NNW,338,2.0,-999.0,88,0.00,,,0.03,,2018-02-24 13:30:00,
2018-02-24 08:35:00,47.1,44.0,30.47,NNW,338,4.0,-999.0,88,0.00,,,0.03,,2018-02-24 13:35:00,
2018-02-24 08:41:00,46.9,43.0,30.48,NNW,338,3.0,-999.0,88,0.00,,,0.03,,2018-02-24 13:41:00,
2018-02-24 08:46:00,46.9,43.0,30.48,NNW,338,3.0,-999.0,88,0.00,,,0.03,,2018-02-24 13:46:00,
2018-02-24 08:52:00,46.9,43.0,30.48,NNW,338,3.0,-999.0,88,0.00,,,0.03,,2018-02-24 13:52:00,
2018-02-24 08:57:00,46.7,43.0,30.49,NNW,338,4.0,-999.0,88,0.00,,,0.03,,2018-02-24 13:57:00,
2018-02-24 09:03:00,46.5,43.0,30.50,NNW,338,3.0,-999.0,88,0.00,,,0.03,,2018-02-24 14:03:00,
2018-02-24 09:08:00,46.4,43.0,30.51,NNW,338,2.0,-999.0,88,0.00,,,0.03,,2018-02-24 14:08:00,
2018-02-24 09:20:00,46.1,43.0,30.49,NNW,338,3.0,-999.0,90,0.01,,,0.04,,2018-02-24 14:20:00,
2018-02-24 09:25:00,46.1,43.0,30.48,NNW,338,3.0,-999.0,90,0.01,,,0.04,,2018-02-24 14:25:00,
2018-02-24 09:31:00,46.1,43.0,30.48,NNW,338,4.0,-999.0,90,0.01,,,0.04,,2018-02-24 14:31:00,
2018-02-24 09:36:00,46.1,43.0,30.48,NNW,338,3.0,-999.0,88,0.02,,,0.05,,2018-02-24 14:36:00,
2018-02-24 10:05:00,46.1,43.0,30.47,NNW,338,2.0,-999.0,88,0.00,,,0.05,,2018-02-24 15:05:00,
2018-02-24 10:11:00,46.5,43.0,30.47,NNW,338,2.0,-999.0,88,0.00,,,0.05,,2018-02-24 15:11:00,
2018-02-24 10:29:00,47.6,44.0,30.45,NNW,338,4.0,-999.0,88,0.00,,,0.05,,2018-02-24 15:29:00,
2018-02-24 10:40:00,47.5,44.0,30.45,NNW,338,3.0,-999.0,88,0.00,,,0.05,,2018-02-24 15:40:00,
2018-02-24 10:45:00,47.3,43.0,30.45,NNW,338,4.0,-999.0,86,0.00,,,0.05,,2018-02-24 15:45:00,
2018-02-24 10:50:00,47.3,43.0,30.44,NNW,338,2.0,-999.0,86,0.00,,,0.05,,2018-02-24 15:50:00,
2018-02-24 10:56:00,47.5,43.0,30.44,NNW,338,2.0,-999.0,86,0.00,,,0.05,,2018-02-24 15:56:00,
2018-02-24 11:01:00,47.5,43.0,30.43,NNW,338,6.0,-999.0,86,0.00,,,0.05,,2018-02-24 16:01:00,
2018-02-24 11:07:00,47.5,43.0,30.43,NNW,338,4.0,-999.0,86,0.00,,,0.05,,2018-02-24 16:07:00,
2018-02-24 11:12:00,47.5,43.0,30.42,NNW,338,7.0,-999.0,86,0.00,,,0.05,,2018-02-24 16:12:00,
2018-02-24 11:18:00,47.5,43.0,30.43,NNW,338,3.0,-999.0,86,0.00,,,0.05,,2018-02-24 16:18:00,
2018-02-24 11:23:00,47.3,43.0,30.42,NNW,338,6.0,-999.0,86,0.00,,,0.05,,2018-02-24 16:23:00,
2018-02-24 11:29:00,47.3,43.0,30.42,NNW,338,5.0,-999.0,86,0.00,,,0.05,,2018-02-24 16:29:00,
2018-02-24 11:34:00,47.1,43.0,30.44,NNW,338,3.0,-999.0,86,0.00,,,0.05,,2018-02-24 16:34:00,
2018-02-24 11:40:00,47.1,43.0,30.47,NNW,338,5.0,-999.0,88,0.01,,,0.06,,2018-02-24 16:40:00,
2018-02-24 11:45:00,46.4,43.0,30.47,NNW,338,6.0,-999.0,90,0.05,,,0.10,,2018-02-24 16:45:00,
2018-02-24 11:51:00,46.4,43.0,30.47,NNW,338,4.0,-999.0,91,0.08,,,0.13,,2018-02-24 16:51:00,
2018-02-24 11:56:00,46.4,43.0,30.47,NNW,338,1.0,-999.0,91,0.09,,,0.14,,2018-02-24 16:56:00,
2018-02-24 12:02:00,46.5,44.0,30.47,NNW,338,2.0,-999.0,91,0.00,,,0.14,,2018-02-24 17:02:00,
2018-02-24 12:07:00,46.5,44.0,30.46,NNW,338,1.0,-999.0,91,0.01,,,0.15,,2018-02-24 17:07:00,
2018-02-24 12:13:00,47.1,44.0,30.45,NNW,338,1.0,-999.0,91,0.01,,,0.15,,2018-02-24 17:13:00,
2018-02-24 12:18:00,46.9,44.0,30.46,NNW,338,2.0,-999.0,91,0.01,,,0.15,,2018-02-24 17:18:00,
2018-02-24 12:24:00,46.5,44.0,30.46,NNW,338,2.0,-999.0,91,0.01,,,0.15,,2018-02-24 17:24:00,
2018-02-24 12:29:00,46.5,44.0,30.45,NNW,338,3.0,-999.0,91,0.02,,,0.16,,2018-02-24 17:29:00,
2018-02-24 12:35:00,46.5,44.0,30.43,NNW,338,3.0,-999.0,91,0.02,,,0.16,,2018-02-24 17:35:00,
2018-02-24 12:40:00,46.7,44.0,30.43,NNW,338,2.0,-999.0,91,0.02,,,0.16,,2018-02-24 17:40:00,
2018-02-24 12:45:00,46.7,44.0,30.44,NNW,338,2.0,-999.0,91,0.02,,,0.16,,2018-02-24 17:45:00,
2018-02-24 12:51:00,46.5,44.0,30.44,NNW,338,2.0,-999.0,91,0.03,,,0.17,,2018-02-24 17:51:00,
2018-02-24 12:56:00,46.5,44.0,30.43,NNW,338,2.0,-999.0,91,0.04,,,0.18,,2018-02-24 17:56:00,
2018-02-24 13:02:00,46.4,44.0,30.42,NNW,338,2.0,-999.0,91,0.01,,,0.21,,2018-02-24 18:02:00,